Temp
-7 -8 -7 -6 -6 -6 -5 -5 -5 -4 -6 -5 -5 -5 -5 -5 -5 -5 -5 -4 -4 -5 -5 -5 -5 -5 -5 -5 -4 -4 -5 -5 -5 -5 -5 -5 -5 -5 -6 -5 -5 -6 -6 -6 -6 -6 -6 -6 -7
-7 -8 -7 -7 -6 -6 -6 -5 -6 -5 -5 -5 -4 -4 -5 -4 -5 -4 -4 -4 -4 -5 -5 -5 -5 -5 -5 -5 -5 -5 -5 -5 -5 -5 -5 -5 -5 -6 -6 -5 -5 -6 -6 -6 -6 -6 -6 -6 -7
-7 -7 -8 -7 -7 -6 -6 -5 -5 -6 -5 -5 -5 -5 -5 -5 -4 -4 -4 -4 -5 -5 -5 -6 -6 -6 -5 -5 -5 -5 -5 -5 -5 -5 -5 -5 -6 -6 -6 -6 -6 -6 -6 -6 -6 -6 -6 -7 -7
-7 -7 -7 -7 -7 -7 -6 -6 -6 -6 -6 -5 -5 -5 -5 -5 -4 -4 -4 -4 -5 -6 -6 -7 -6 -6 -6 -5 -6 -6 -6 -6 -6 -6 -5 -6 -6 -6 -6 -6 -6 -6 -7 -7 -7 -6 -7 -6 -7
-7 -7 -7 -8 -7 -7 -7 -7 -7 -7 -6 -6 -6 -5 -5 -6 -5 -5 -5 -5 -6 -6 -7 -7 -7 -6 -6 -5 -6 -6 -6 -6 -6 -6 -6 -6 -6 -6 -6 -7 -7 -7 -7 -7 -7 -7 -7 -6 -7
-7 -7 -7 -8 -8 -8 -7 -7 -6 -6 -7 -6 -6 -7 -6 -6 -5 -6 -6 -6 -6 -7 -7 -7 -7 -6 -6 -5 -6 -6 -7 -7 -6 -6 -6 -6 -6 -6 -7 -7 -7 -7 -7 -7 -7 -7 -7 -7 -7
-7 -7 -7 -7 -8 -7 -7 -7 -7 -6 -6 -7 -7 -7 -7 -6 -5 -6 -7 -7 -6 -7 -7 -7 -7 -7 -6 -6 -6 -7 -7 -7 -7 -7 -6 -6 -6 -6 -6 -7 -7 -7 -7 -7 -7 -7 -7 -7 -7
-7 -7 -7 -7 -8 -8 -7 -6 -6 -7 -7 -7 -7 -7 -7 -7 -6 -7 -7 -7 -7 -7 -7 -7 -7 -7 -6 -6 -6 -7 -7 -7 -7 -7 -7 -7 -7 -7 -7 -7 -7 -7 -7 -7 -7 -7 -8 -8 -8
-7 -7 -7 -7 -8 -8 -8 -7 -6 -7 -7 -7 -7 -7 -7 -7 -7 -8 -7 -7 -7 -7 -7 -7 -7 -7 -6 -7 -7 -7 -7 -7 -7 -7 -7 -7 -7 -7 -7 -7 -7 -7 -7 -7 -8 -8 -8 -8 -8
-7 -6 -7 -7 -8 -9 -8 -7 -6 -7 -7 -7 -7 -7 -8 -7 -8 -8 -7 -7 -7 -7 -7 -7 -7 -7 -7 -7 -7 -7 -7 -8 -8 -7 -7 -7 -7 -7 -7 -7 -7 -7 -7 -8 -8 -8 -8 -8 -8
-7 -7 -7 -8 -8 -9 -8 -7 -7 -7 -7 -8 -8 -8 -8 -8 -9 -8 -8 -7 -7 -7 -7 -8 -8 -7 -7 -8 -8 -8 -8 -8 -8 -8 -8 -8 -8 -8 -8 -8 -7 -8 -8 -8 -8 -8 -8 -8 -8
-7 -7 -8 -8 -8 -8 -8 -7 -8 -7 -8 -9 -8 -8 -8 -7 -8 -9 -9 -8 -8 -8 -8 -8 -8 -8 -8 -8 -8 -8 -8 -8 -8 -8 -8 -8 -8 -8 -8 -8 -8 -8 -8 -8 -8 -9 -9 -9 -8
-7 -7 -7 -8 -8 -8 -8 -7 -7 -8 -8 -8 -8 -8 -8 -7 -8 -9 -9 -9 -8 -8 -8 -8 -8 -8 -8 -8 -8 -8 -8 -8 -8 -8 -8 -8 -8 -8 -8 -8 -8 -8 -8 -8 -8 -9 -9 -9 -9
-8 -7 -7 -7 -8 -8 -8 -7 -7 -8 -9 -9 -9 -8 -8 -8 -8 -8 -9 -9 -9 -9 -8 -8 -8 -8 -8 -8 -8 -8 -8 -8 -9 -9 -8 -8 -8 -8 -8 -8 -8 -8 -8 -8 -8 -9 -9 -9 -9
-8 -8 -7 -7 -7 -8 -8 -8 -8 -8 -9 -9 -9 -9 -9 -8 -8 -9 -9 -9 -9 -9 -9 -8 -8 -8 -8 -8 -8 -8 -8 -9 -9 -9 -9 -9 -8 -8 -8 -9 -9 -9 -9 -9 -9 -9 -9 -9 -9
-8 -8 -7 -8 -7 -8 -8 -8 -8 -9 -9 -10 -9 -9 -9 -9 -9 -9 -9 -9 -9 -9 -9 -9 -9 -9 -9 -9 -8 -9 -9 -9 -9 -9 -9 -9 -9 -9 -9 -9 -9 -9 -9 -9 -10 -10 -10 -10 -9
-8 -8 -8 -8 -8 -8 -9 -9 -9 -9 -9 -10 -10 -10 -10 -9 -9 -9 -9 -9 -9 -9 -9 -9 -9 -9 -9 -9 -9 -9 -9 -9 -9 -9 -9 -9 -9 -9 -9 -9 -9 -9 -9 -9 -10 -10 -10 -10 -10
-8 -8 -8 -8 -8 -9 -9 -9 -9 -10 -10 -10 -10 -10 -10 -10 -10 -10 -10 -10 -10 -10 -10 -10 -10 -10 -9 -9 -9 -9 -9 -9 -10 -10 -10 -10 -10 -10 -10 -10 -10 -9 -9 -9 -10 -10 -10 -10 -10
-9 -9 -8 -9 -9 -9 -9 -9 -10 -10 -10 -10 -10 -11 -11 -10 -10 -10 -10 -10 -10 -10 -10 -10 -10 -10 -10 -10 -9 -9 -10 -10 -10 -10 -10 -10 -10 -10 -10 -10 -10 -9 -9 -9 -9 -10 -10 -10 -10
-9 -9 -10 -9 -9 -9 -10 -9 -9 -10 -10 -10 -11 -11 -11 -10 -10 -10 -10 -10 -10 -10 -10 -10 -10 -10 -10 -10 -10 -10 -10 -10 -10 -10 -10 -10 -11 -10 -10 -10 -10 -10 -10 -10 -10 -10 -10 -10 -10
-10 -10 -10 -10 -10 -9 -10 -10 -10 -10 -10 -10 -11 -11 -11 -11 -11 -11 -11 -11 -10 -10 -10 -10 -10 -10 -10 -10 -10 -10 -10 -10 -10 -10 -10 -11 -11 -11 -10 -10 -10 -10 -10 -10 -10 -10 -10 -10 -10
-10 -10 -10 -10 -10 -10 -10 -10 -10 -10 -10 -11 -11 -11 -11 -11 -11 -11 -11 -11 -11 -10 -10 -11 -11 -11 -10 -11 -11 -11 -11 -11 -11 -11 -11 -11 -11 -11 -10 -10 -11 -11 -11 -11 -11 -10 -10 -10 -11
-11 -11 -11 -11 -11 -11 -11 -11 -10 -11 -11 -11 -11 -11 -11 -11 -11 -11 -11 -11 -11 -11 -11 -11 -11 -11 -11 -11 -11 -11 -11 -11 -11 -11 -11 -11 -11 -11 -11 -11 -11 -11 -11 -11 -11 -11 -11 -11 -11
-13 -13 -13 -12 -12 -11 -11 -11 -10 -10 -11 -11 -11 -11 -11 -12 -12 -12 -12 -12 -12 -12 -12 -12 -12 -13 -12 -12 -11 -11 -11 -11 -11 -11 -11 -11 -11 -11 -11 -12 -12 -11 -11 -11 -11 -11 -11 -11 -11
-13 -13 -13 -13 -12 -12 -11 -11 -11 -11 -11 -11 -11 -11 -11 -11 -12 -12 -12 -12 -12 -12 -12 -13 -13 -13 -13 -13 -12 -12 -12 -12 -12 -12 -12 -12 -12 -12 -12 -12 -12 -12 -12 -12 -12 -12 -12 -12 -12
-13 -13 -13 -13 -12 -12 -12 -11 -12 -11 -12 -12 -12 -12 -12 -12 -12 -12 -12 -12 -13 -13 -13 -12 -12 -12 -13 -13 -13 -13 -13 -13 -12 -12 -12 -12 -12 -12 -12 -12 -12 -12 -12 -12 -12 -13 -13 -13 -13
-13 -13 -13 -13 -12 -12 -12 -12 -12 -12 -12 -12 -12 -12 -12 -12 -11 -12 -12 -13 -13 -13 -13 -13 -13 -13 -13 -13 -13 -13 -13 -13 -13 -13 -13 -13 -13 -12 -12 -12 -12 -12 -12 -13 -13 -14 -14 -14 -14
-14 -13 -13 -13 -13 -12 -12 -12 -12 -12 -12 -12 -12 -12 -12 -12 -11 -12 -13 -13 -13 -13 -13 -13 -14 -14 -14 -14 -14 -14 -14 -13 -14 -13 -13 -13 -13 -13 -13 -13 -13 -13 -13 -14 -14 -14 -14 -15 -15
-13 -13 -13 -13 -13 -13 -13 -12 -13 -13 -13 -13 -13 -13 -12 -12 -12 -12 -13 -13 -14 -14 -14 -14 -14 -14 -14 -14 -14 -14 -14 -14 -14 -14 -14 -14 -13 -13 -13 -13 -14 -14 -14 -14 -15 -15 -15 -15 -15
-14 -14 -14 -14 -13 -13 -13 -13 -13 -13 -12 -12 -12 -13 -13 -12 -12 -12 -13 -13 -14 -14 -14 -14 -14 -14 -15 -15 -15 -14 -14 -15 -14 -14 -14 -14 -13 -13 -14 -14 -14 -14 -15 -15 -15 -15 -15 -15 -15
Height
5905 5906 5907 5909 5914 5913 5914 5917 5917 5918 5920 5920 5921 5922 5922 5921 5922 5925 5923 5923 5923 5922 5922 5921 5922 5923 5924 5925 5926 5926 5925 5925 5924 5924 5923 5923 5924 5925 5927 5927 5927 5927 5927 5927 5928 5928 5928 5929 5929
5904 5906 5906 5908 5911 5911 5913 5914 5915 5917 5919 5919 5920 5920 5920 5920 5920 5921 5921 5921 5921 5921 5920 5920 5921 5922 5923 5924 5924 5925 5924 5924 5924 5924 5923 5924 5924 5925 5926 5927 5927 5928 5928 5928 5928 5929 5929 5930 5931
5902 5904 5906 5906 5909 5911 5911 5912 5914 5916 5917 5918 5919 5919 5919 5919 5919 5919 5919 5920 5919 5920 5920 5919 5919 5920 5922 5922 5923 5923 5923 5923 5923 5925 5924 5924 5924 5925 5925 5926 5927 5927 5928 5928 5929 5929 5930 5930 5931
5900 5902 5905 5905 5907 5909 5910 5911 5913 5914 5916 5918 5918 5918 5918 5917 5917 5917 5918 5918 5918 5918 5919 5919 5919 5920 5920 5920 5921 5921 5922 5923 5922 5923 5924 5924 5924 5924 5924 5925 5927 5928 5927 5927 5929 5929 5929 5930 5931
5897 5899 5902 5903 5903 5906 5908 5909 5912 5914 5915 5915 5917 5917 5916 5915 5916 5915 5915 5916 5916 5916 5917 5918 5919 5919 5920 5919 5919 5919 5920 5921 5921 5922 5921 5923 5924 5923 5924 5925 5926 5927 5927 5926 5927 5928 5929 5930 5930
5894 5896 5899 5900 5900 5900 5904 5906 5910 5911 5913 5914 5914 5915 5916 5914 5913 5913 5914 5914 5914 5915 5916 5917 5918 5918 5918 5918 5917 5917 5917 5919 5920 5920 5920 5921 5921 5922 5923 5924 5924 5925 5925 5926 5926 5926 5928 5929 5929
5889 5892 5895 5896 5895 5897 5899 5903 5906 5909 5912 5913 5913 5914 5915 5914 5913 5912 5912 5914 5914 5914 5914 5915 5915 5916 5917 5916 5915 5915 5916 5916 5918 5918 5919 5920 5921 5921 5921 5923 5923 5924 5924 5923 5924 5925 5925 5928 5928
5885 5887 5891 5893 5892 5891 5893 5896 5900 5907 5910 5911 5913 5914 5914 5912 5910 5910 5912 5912 5913 5914 5913 5913 5913 5914 5915 5914 5914 5914 5915 5915 5916 5916 5917 5918 5919 5920 5920 5921 5922 5922 5922 5921 5922 5924 5924 5925 5927
5880 5884 5888 5888 5889 5888 5887 5890 5897 5902 5905 5908 5910 5911 5911 5910 5908 5909 5909 5910 5911 5912 5912 5912 5913 5913 5913 5913 5913 5913 5914 5913 5914 5915 5915 5916 5917 5918 5919 5919 5920 5920 5920 5920 5920 5922 5924 5923 5924
5874 5880 5883 5883 5883 5882 5881 5886 5892 5898 5901 5904 5906 5907 5908 5906 5906 5908 5908 5908 5909 5910 5910 5910 5911 5912 5912 5911 5911 5911 5912 5911 5911 5913 5913 5913 5914 5915 5916 5917 5918 5919 5918 5917 5918 5919 5921 5922 5922
5871 5876 5875 5876 5877 5876 5875 5881 5887 5892 5898 5901 5903 5903 5906 5904 5904 5905 5905 5906 5907 5908 5908 5908 5908 5909 5910 5909 5910 5910 5910 5910 5910 5910 5909 5910 5911 5911 5912 5913 5915 5916 5917 5917 5915 5916 5918 5919 5920
5863 5868 5869 5869 5870 5870 5871 5875 5880 5888 5892 5894 5896 5899 5903 5903 5904 5902 5902 5903 5904 5905 5905 5906 5906 5907 5907 5907 5908 5908 5908 5908 5908 5908 5907 5907 5908 5908 5909 5911 5911 5913 5914 5915 5914 5914 5914 5915 5917
5853 5860 5861 5861 5862 5864 5867 5869 5874 5882 5886 5888 5891 5896 5900 5901 5901 5899 5898 5899 5900 5901 5902 5903 5904 5904 5904 5905 5905 5905 5905 5906 5905 5905 5906 5906 5905 5906 5906 5907 5909 5910 5911 5912 5912 5912 5912 5914 5913
5846 5850 5852 5854 5857 5859 5864 5865 5869 5877 5881 5884 5887 5892 5896 5897 5896 5895 5895 5895 5896 5897 5898 5900 5901 5901 5901 5902 5903 5902 5902 5902 5902 5903 5903 5903 5903 5903 5903 5904 5905 5907 5908 5909 5909 5909 5909 5909 5910
5838 5843 5846 5851 5854 5858 5857 5862 5866 5872 5876 5880 5883 5888 5891 5893 5893 5892 5891 5891 5890 5892 5892 5894 5895 5897 5897 5898 5899 5898 5898 5899 5899 5900 5901 5901 5902 5901 5901 5901 5902 5902 5904 5906 5907 5907 5907 5907 5907
5833 5837 5842 5847 5849 5852 5852 5858 5862 5867 5871 5875 5879 5884 5887 5889 5888 5889 5888 5887 5887 5888 5888 5888 5890 5892 5893 5894 5895 5895 5895 5896 5897 5897 5898 5898 5898 5899 5899 5898 5898 5898 5899 5900 5902 5903 5903 5902 5903
5829 5834 5838 5841 5842 5845 5847 5852 5857 5862 5867 5871 5875 5879 5881 5883 5883 5884 5884 5884 5884 5884 5885 5885 5885 5886 5887 5889 5889 5891 5892 5891 5892 5893 5894 5894 5894 5894 5894 5894 5893 5893 5893 5894 5895 5895 5896 5896 5894
5825 5829 5832 5834 5836 5839 5841 5848 5854 5858 5862 5866 5869 5874 5876 5876 5877 5878 5878 5880 5880 5879 5880 5881 5880 5882 5883 5884 5885 5886 5885 5885 5887 5888 5889 5889 5889 5889 5889 5888 5886 5886 5887 5888 5887 5887 5887 5887 5886
5818 5822 5826 5827 5830 5835 5839 5843 5849 5853 5858 5862 5865 5869 5870 5870 5872 5872 5873 5875 5875 5875 5875 5875 5875 5877 5878 5878 5879 5880 5880 5879 5881 5882 5883 5883 5881 5883 5883 5881 5880 5879 5879 5878 5879 5879 5879 5878 5879
5812 5816 5820 5821 5827 5831 5836 5839 5844 5848 5852 5857 5860 5863 5864 5866 5867 5868 5868 5870 5871 5870 5870 5870 5869 5870 5871 5872 5873 5875 5875 5875 5874 5876 5877 5875 5875 5876 5876 5874 5872 5870 5870 5871 5870 5868 5866 5866 5868
5807 5811 5813 5819 5823 5827 5832 5834 5836 5840 5846 5850 5854 5856 5858 5860 5861 5862 5863 5864 5865 5865 5864 5864 5864 5865 5865 5865 5866 5868 5868 5869 5869 5870 5870 5870 5869 5868 5867 5860 5862 5863 5863 5863 5864 5863 5860 5860 5859
5803 5807 5811 5816 5819 5823 5827 5828 5830 5834 5837 5841 5846 5850 5853 5854 5855 5855 5855 5857 5858 5859 5860 5859 5859 5859 5860 5860 5860 5860 5861 5862 5862 5862 5862 5862 5861 5862 5861 5861 5857 5854 5853 5853 5853 5852 5852 5850 5849
5801 5804 5807 5811 5814 5817 5820 5823 5825 5829 5832 5836 5840 5844 5847 5848 5849 5849 5849 5849 5849 5851 5853 5854 5854 5854 5855 5855 5855 5855 5855 5855 5856 5856 5856 5855 5855 5854 5854 5852 5850 5848 5848 5847 5845 5844 5843 5842 5841
5797 5800 5803 5806 5809 5813 5815 5818 5821 5824 5830 5833 5835 5838 5840 5841 5842 5843 5842 5842 5843 5844 5844 5846 5847 5848 5849 5850 5850 5850 5850 5850 5849 5849 5849 5848 5847 5847 5846 5845 5843 5841 5840 5838 5837 5836 5834 5833 5831
5793 5796 5800 5804 5805 5808 5811 5814 5816 5821 5824 5827 5829 5831 5833 5835 5835 5835 5835 5836 5836 5837 5837 5837 5839 5840 5841 5842 5843 5843 5843 5842 5841 5841 5841 5840 5839 5838 5836 5835 5834 5832 5830 5829 5827 5825 5823 5821 5820
5789 5793 5797 5798 5801 5804 5808 5809 5813 5817 5819 5821 5823 5825 5827 5828 5828 5828 5827 5829 5828 5828 5829 5829 5830 5831 5832 5832 5832 5833 5833 5833 5833 5832 5832 5832 5831 5830 5828 5826 5824 5821 5820 5818 5815 5813 5812 5810 5808
5786 5789 5793 5795 5798 5802 5803 5806 5809 5811 5812 5813 5815 5816 5817 5818 5819 5819 5820 5820 5819 5819 5819 5820 5820 5821 5822 5822 5822 5822 5823 5823 5823 5823 5822 5821 5820 5819 5818 5816 5814 5812 5809 5807 5804 5802 5800 5799 5797
5783 5787 5788 5790 5793 5796 5798 5801 5803 5805 5806 5806 5807 5808 5809 5810 5811 5810 5811 5811 5810 5810 5810 5811 5811 5813 5813 5813 5813 5813 5813 5813 5812 5811 5810 5809 5808 5807 5806 5804 5801 5799 5796 5794 5792 5790 5788 5786 5784
5778 5781 5784 5786 5788 5790 5793 5794 5796 5798 5799 5799 5799 5799 5800 5801 5802 5802 5801 5801 5802 5802 5802 5802 5802 5802 5802 5803 5803 5803 5803 5803 5802 5800 5798 5797 5796 5795 5793 5791 5788 5786 5784 5782 5780 5778 5776 5774 5771
5772 5774 5777 5779 5783 5784 5786 5787 5788 5789 5790 5791 5792 5793 5793 5793 5793 5792 5792 5792 5793 5793 5792 5792 5792 5792 5793 5793 5793 5793 5793 5792 5791 5789 5787 5786 5785 5783 5781 5778 5776 5774 5773 5771 5769 5768 5766 5763 5759
Wind_Speed
2 2 3 6 10 12 12 11 9 14 21 14 6 6 7 7 6 6 4 2 5 6 8 9 7 5 4 1 1 1 2 2 3 4 7 9 9 9 9 9 10 10 8 7 7 8 10 10 11
6 5 4 4 7 13 13 13 10 17 21 16 10 8 11 10 11 9 8 3 4 6 8 9 9 7 5 4 1 2 1 2 3 3 5 6 8 8 7 8 9 10 8 7 6 5 7 9 9
11 9 7 6 6 11 16 15 13 16 18 23 14 10 9 14 11 15 12 6 4 5 7 8 9 7 5 4 3 3 2 2 1 1 2 4 6 6 7 7 7 8 7 7 5 5 6 6 8
15 12 10 10 10 8 12 16 16 21 21 15 15 13 10 14 11 12 8 5 1 5 6 8 8 5 5 4 3 2 3 3 2 1 1 1 3 4 6 5 6 6 5 5 5 3 4 5 6
18 16 12 12 14 12 13 13 22 22 19 15 17 16 16 11 10 10 4 3 8 6 6 6 6 6 6 5 3 4 4 4 3 2 1 1 1 2 3 4 4 3 3 4 4 2 0 3 5
20 18 15 13 19 19 15 17 16 20 21 20 18 20 17 15 10 3 2 4 4 5 5 6 7 7 8 6 4 4 4 4 5 5 3 2 1 2 2 3 3 3 2 1 2 2 1 2 5
22 20 17 18 24 24 22 18 19 18 14 14 14 16 13 11 11 7 4 4 4 5 4 5 5 5 6 3 3 3 4 4 5 5 4 4 4 3 2 1 2 3 1 2 1 0 1 4 6
25 22 18 19 26 28 27 24 22 14 15 18 17 14 12 12 11 7 4 3 3 4 4 4 4 4 2 1 0 2 4 4 5 5 5 5 5 5 3 3 2 3 3 4 2 2 3 5 7
27 21 18 19 25 31 33 31 21 18 16 14 15 15 13 14 14 6 3 3 4 1 2 2 3 4 3 2 1 1 4 5 6 7 7 7 7 7 6 6 5 4 5 7 6 4 5 6 7
28 20 20 22 25 33 38 34 25 22 19 16 16 13 16 19 12 5 5 4 5 4 3 2 5 6 5 4 3 2 4 6 7 9 9 9 9 8 8 7 7 7 7 9 10 8 7 8 8
28 20 23 24 27 34 40 35 31 26 22 18 16 16 15 10 2 3 4 7 8 7 5 4 4 9 7 6 6 6 6 6 9 10 10 11 10 9 9 9 9 9 9 11 12 12 11 10 9
32 28 26 29 32 35 40 38 35 27 24 23 23 22 20 11 4 5 8 10 11 10 8 8 5 6 8 9 10 10 10 9 9 12 12 12 11 11 10 10 9 9 10 11 12 13 14 12 12
38 32 32 35 36 36 39 40 38 31 29 30 30 23 17 14 10 10 12 12 13 15 12 12 11 10 10 11 12 11 10 10 11 12 13 14 13 12 12 11 10 9 8 11 13 13 15 15 14
37 39 38 40 38 35 38 42 38 34 34 34 32 24 16 17 12 12 13 15 17 15 15 14 15 14 12 11 11 12 11 11 13 13 13 14 14 15 14 14 13 13 10 9 10 14 17 17 18
35 38 39 38 36 31 38 40 41 38 37 35 33 26 21 19 17 15 16 18 21 20 18 16 17 16 15 13 14 13 13 11 10 11 14 14 15 16 16 17 17 17 16 13 11 12 14 18 20
32 35 35 34 32 30 36 39 42 42 41 36 33 29 25 22 21 19 21 22 24 24 20 20 20 19 18 15 15 16 15 15 14 13 14 13 14 16 18 20 21 21 20 19 16 15 15 17 19
28 28 28 30 32 31 35 39 42 41 43 40 35 29 28 26 26 26 27 29 26 25 23 23 23 22 20 19 18 19 18 20 21 20 19 20 18 19 20 23 24 25 25 24 23 22 21 22 24
23 26 29 31 32 32 38 42 44 43 41 38 33 28 27 28 28 30 34 31 29 26 24 24 27 26 23 23 22 23 26 27 26 25 24 26 25 22 24 26 28 29 29 29 29 29 29 29 30
28 32 31 33 34 33 35 36 42 44 43 42 37 31 30 31 33 34 32 31 28 25 23 25 28 28 29 28 27 28 30 31 30 29 27 30 23 28 29 31 33 34 36 36 35 33 32 34 34
29 31 32 35 34 33 33 34 34 37 40 42 40 32 33 31 33 32 29 28 29 28 25 25 26 26 26 27 29 29 31 32 32 31 30 32 32 34 34 36 38 39 42 40 33 32 34 32 34
31 31 34 34 33 32 28 30 33 35 35 38 39 34 34 29 29 25 22 23 23 23 22 22 22 25 26 26 26 27 28 31 32 32 32 34 35 36 36 37 34 31 38 38 31 36 36 40 39
32 31 32 31 31 30 28 34 33 32 33 34 35 32 32 29 24 21 22 22 22 21 22 19 21 22 23 25 26 26 26 27 29 30 32 33 35 35 38 40 43 43 37 37 38 38 40 40 43
28 29 29 29 29 28 29 29 33 34 33 30 29 30 30 32 30 25 24 24 23 24 24 24 24 21 22 25 24 23 22 24 25 26 29 32 34 35 36 38 37 36 36 37 40 42 43 43 44
30 29 28 29 28 27 28 26 26 30 25 23 26 28 29 30 30 26 24 23 25 28 25 23 22 22 23 24 25 27 25 24 24 25 26 29 29 30 30 32 34 36 39 42 43 44 46 46 47
31 33 27 26 26 27 29 30 32 29 30 30 31 32 30 28 27 29 27 28 32 31 29 28 29 30 32 30 30 32 31 29 29 29 30 31 33 36 38 40 42 43 44 44 46 48 49 50 50
35 35 35 32 30 29 28 31 30 29 28 29 31 31 31 30 31 35 37 38 32 32 30 31 33 34 34 33 34 34 33 30 29 30 34 37 40 41 42 44 45 45 45 47 47 46 47 49 50
35 34 33 34 34 30 30 30 30 28 28 29 32 34 32 32 35 36 33 30 31 33 34 35 35 37 35 36 38 39 35 32 36 39 39 39 40 42 44 45 47 48 49 49 49 47 47 49 50
35 31 33 34 32 30 29 26 25 24 25 27 29 30 31 31 31 31 32 32 34 36 38 40 40 39 39 37 42 36 38 37 39 42 43 45 45 45 46 48 49 48 47 47 47 48 48 48 50
32 33 31 33 32 26 24 24 22 22 24 27 30 32 31 29 30 32 34 35 37 38 38 39 39 39 36 36 32 35 37 40 42 44 45 47 47 48 49 47 46 46 46 47 47 46 46 45 47
27 27 26 23 23 27 27 28 26 24 26 26 27 29 31 30 32 33 34 34 34 37 37 39 39 40 38 37 40 41 42 43 45 48 49 48 48 48 45 45 45 45 44 41 40 39 41 42 44
Wind_Direction
256 281 190 181 171 162 175 177 174 166 168 173 196 234 244 255 250 268 271 307 349 354 358 6 360 359 333 5 75 87 91 51 49 56 62 71 67 58 50 48 52 49 49 67 89 116 125 134 141
258 253 252 217 170 172 183 179 161 160 174 189 194 225 248 260 262 258 265 290 328 331 342 348 348 340 318 300 260 210 162 79 43 57 71 76 80 78 68 50 46 42 47 59 89 114 128 138 143
265 259 249 247 201 177 191 188 182 175 181 190 207 238 241 247 261 261 270 282 313 334 339 353 345 336 313 294 275 251 228 179 100 22 72 92 90 81 76 62 56 52 52 52 70 110 136 151 149
259 260 246 248 236 204 198 194 186 179 178 211 226 245 240 238 242 264 263 236 35 20 22 6 352 344 338 305 266 246 254 243 201 205 313 49 83 88 79 78 70 61 53 59 56 89 140 165 162
261 257 237 231 249 227 213 202 184 192 209 220 228 252 259 259 233 247 231 269 331 355 14 353 341 322 339 329 270 236 229 243 238 232 218 279 145 129 116 104 98 92 62 64 70 61 161 173 183
256 254 236 217 239 242 233 222 209 211 204 212 239 246 252 256 262 253 286 309 344 338 328 315 311 296 286 310 300 253 225 234 253 247 252 264 230 190 159 139 124 130 110 14 77 76 326 227 197
252 251 231 219 228 242 242 238 227 223 233 235 248 246 245 251 239 253 274 329 348 343 333 324 331 311 290 293 284 241 228 227 249 265 273 277 276 255 226 196 155 148 185 223 165 125 185 249 229
242 247 232 227 231 241 247 243 240 227 225 234 251 250 264 257 251 267 308 341 352 4 6 3 353 344 356 34 349 210 219 220 237 249 259 263 263 252 247 255 230 195 215 244 239 227 228 229 242
239 242 231 233 225 234 245 248 248 240 235 228 229 248 260 254 244 257 275 277 271 329 323 347 355 345 336 1 37 215 215 216 226 226 237 245 259 268 266 251 237 216 219 242 241 231 246 230 235
236 233 227 237 225 229 243 248 252 242 242 236 241 246 264 263 230 197 239 264 260 250 246 265 321 326 307 289 278 244 246 236 226 235 238 242 244 249 256 261 264 245 222 228 239 236 229 242 231
234 224 230 231 228 228 239 244 246 245 235 228 233 238 245 220 118 164 229 228 246 244 230 251 299 305 282 273 274 260 257 258 249 240 241 242 249 253 256 260 263 258 241 234 237 238 237 233 242
236 225 231 229 229 227 236 244 241 241 241 230 232 228 237 260 214 230 244 248 244 243 246 259 265 273 278 270 263 261 268 259 255 249 243 240 244 252 259 263 261 256 251 246 246 252 250 242 237
235 221 230 228 230 227 234 244 243 239 240 239 242 245 251 263 258 248 254 260 254 250 250 259 253 267 277 279 269 261 259 257 252 250 251 249 247 249 255 262 263 259 250 246 246 248 256 256 250
224 221 228 229 231 232 234 240 244 237 236 241 250 263 262 272 263 262 271 279 270 267 255 259 262 263 273 281 273 269 261 261 251 248 252 254 251 251 254 259 263 267 263 252 250 249 248 251 251
219 223 228 231 234 235 236 240 241 237 237 243 249 252 260 263 271 276 281 288 280 268 264 260 266 257 258 265 280 263 263 255 253 258 256 260 268 267 265 262 264 266 268 267 258 257 261 257 254
217 220 224 229 234 236 239 237 239 238 240 245 252 257 261 260 266 265 273 273 272 273 270 265 266 262 255 257 268 266 264 256 255 254 258 260 268 275 276 272 269 269 267 267 265 258 257 261 262
218 219 222 227 232 231 235 231 232 235 239 244 249 253 259 254 257 265 271 275 272 270 261 260 260 261 259 255 256 258 263 253 256 256 260 257 264 268 271 272 271 269 267 266 265 261 255 253 254
219 217 220 226 230 228 230 228 229 233 237 240 243 246 245 248 254 264 271 269 269 263 261 255 255 252 256 255 252 253 256 258 260 261 265 263 263 268 270 268 267 268 268 266 262 260 260 257 255
214 219 222 226 228 230 230 231 229 232 237 240 246 244 247 251 259 261 264 266 263 259 253 252 253 253 252 251 252 252 257 260 260 265 270 268 261 275 274 272 272 272 268 262 260 261 262 261 261
212 213 216 223 224 228 229 235 238 239 240 239 240 240 245 253 258 260 261 260 261 257 253 252 253 251 250 249 251 251 253 256 264 266 264 268 272 272 272 272 270 273 272 269 270 268 267 269 267
213 212 217 223 227 230 231 234 237 239 240 240 239 237 250 255 254 249 251 250 247 247 252 254 255 254 253 252 252 250 251 255 258 260 263 265 270 276 278 272 266 270 270 281 275 270 274 273 274
215 216 223 226 231 237 232 237 238 242 247 246 241 237 245 241 244 253 257 260 260 257 251 251 255 261 262 264 264 262 260 260 263 266 267 269 270 269 268 276 280 288 288 285 283 282 283 283 281
210 215 220 225 228 227 228 236 238 238 242 249 246 238 234 241 252 244 252 260 271 273 272 265 261 260 262 262 263 262 261 260 261 263 263 266 270 274 275 279 284 285 285 285 285 285 286 284 282
198 201 213 222 228 225 224 228 230 233 234 221 226 231 240 243 236 243 255 267 276 279 272 258 253 247 249 249 252 254 256 260 268 272 270 270 272 275 279 284 286 288 287 286 284 283 282 282 282
196 206 206 215 222 222 224 227 233 230 234 239 241 238 244 250 255 247 262 273 280 275 276 264 257 255 258 261 259 261 265 271 273 275 275 276 280 285 288 290 290 289 287 286 285 285 286 285 285
202 211 216 219 225 231 233 237 237 241 245 251 252 251 252 259 261 260 268 275 268 267 268 270 269 270 270 273 271 271 267 273 272 273 280 284 282 283 286 288 287 286 287 287 285 284 283 284 284
215 221 227 233 236 238 241 245 249 252 254 255 257 263 263 261 261 261 264 263 261 263 266 268 267 268 269 271 274 270 270 274 279 281 284 285 287 286 287 287 287 286 286 286 285 283 282 281 280
222 229 231 237 237 235 236 240 244 245 251 256 257 257 260 260 262 267 267 264 259 263 266 270 270 265 267 272 274 271 271 276 281 283 284 286 287 285 285 286 287 287 285 283 282 281 282 282 283
231 234 239 246 239 233 243 246 250 252 251 256 260 262 265 264 261 260 261 262 261 261 264 265 265 256 263 277 273 274 275 277 281 282 283 286 287 285 286 284 284 283 284 283 283 284 286 288 289
229 238 236 236 236 239 251 256 259 260 261 265 263 259 259 262 260 257 258 259 256 257 257 256 258 265 268 269 272 274 277 279 281 282 282 281 280 282 280 281 282 283 282 282 283 285 288 293 297